Regional Weather Roundup
Issued by NWS Boston, MA

Home | Current Version | Previous Version | Text Only | Print | Product List | Glossary On
Versions: 1 2 3 4 5 6 7 8 9 10 11 12 13 14 15 16 17 18 19 20 21 22 23 24 25 26 27 28 29 30 31 32 33 34 35 36 37 38 39 40 41 42 43 44 45 46 47 48 49
000
ASUS41 KBOX 201310
RWRBOX

REGIONAL WEATHER ROUNDUP
NATIONAL WEATHER SERVICE TAUNTON MA
900 AM EDT WED AUG 20 2014

NOTE:  "FAIR" INDICATES FEW OR NO CLOUDS BELOW 12,000 FEET WITH NO
SIGNIFICANT WEATHER AND/OR OBSTRUCTIONS TO VISIBILITY.  THE FOLLOWING
OBSERVATION LOCATIONS DO NOT REPORT PRESENT WEATHER...PROVINCETOWN...
SMITHFIELD...BLOCK ISLAND...KEENE...AND OXFORD.

MAZALL-201400-
EASTERN MASSACHUSETTS

CITY           SKY/WX    TMP DP  RH WIND       PRES   REMARKS
BOSTON         MOSUNNY   67  56  67 E5        30.01S
BEVERLY        SUNNY     68  57  68 CALM      30.01R
LAWRENCE       SUNNY     67  58  72 CALM      30.03S
BEDFORD        SUNNY     64  57  78 CALM      30.00S
BLUE HILL        N/A     66  58  75 NE6       30.01R
NORWOOD        SUNNY     68  58  70 E5        30.00S
MARSHFIELD     SUNNY     68  61  77 E5        30.02S
PLYMOUTH       CLOUDY    63  60  90 NE5       30.01S FOG
TAUNTON        SUNNY     67  60  78 CALM      30.00S
NEW BEDFORD    SUNNY     69  62  78 N5        29.99S
$$

MAZALL-201400-
CAPE COD AND THE ISLANDS

CITY           SKY/WX    TMP DP  RH WIND       PRES   REMARKS
FALMOUTH       SUNNY     68  63  83 NE6       30.00S
HYANNIS        SUNNY     71  59  65 N6        29.99S
CHATHAM        SUNNY     68  56  65 NE5       30.02R
PROVINCETOWN   SUNNY     68  61  77 MISG      30.02R
NANTUCKET      SUNNY     69  53  56 NE6       30.00S
MARTHAS VNYRD  SUNNY     71  62  73 N7        30.00S
$$

MAZALL-201400-
CENTRAL AND WESTERN MASSACHUSETTS

CITY           SKY/WX    TMP DP  RH WIND       PRES   REMARKS
WORCESTER      SUNNY     69  58  67 VRB3      30.03R
FITCHBURG      SUNNY     67  56  67 CALM      30.03S
ORANGE         PTSUNNY   62  55  77 CALM      30.02S
SPRINGFIELD    SUNNY     64  59  86 CALM      30.01S
WESTFIELD      SUNNY     65  57  75 N5        30.02R
NORTH ADAMS    PTSUNNY   61  56  83 CALM      30.01F
PITTSFIELD     CLOUDY    60  55  83 CALM      30.02R
$$

RIZALL-201400-
RHODE ISLAND

CITY           SKY/WX    TMP DP  RH WIND       PRES   REMARKS
PROVIDENCE     PTSUNNY   72  60  66 VRB3      30.01R
NEWPORT        SUNNY     70  63  78 NW5       30.00S
BLOCK ISLAND   MOSUNNY   68  63  83 NE6       30.00S
SMITHFIELD     SUNNY     68  55  64 N5        30.01S
WESTERLY       CLOUDY   N/A N/A N/A CALM      30.01R FOG
$$

CTZALL-201400-
CONNECTICUT

CITY           SKY/WX    TMP DP  RH WIND       PRES   REMARKS
BRADLEY INTL   PTSUNNY   66  58  75 N3        30.01R
HARTFORD       PTSUNNY   66  59  78 CALM      30.01S
BRIDGEPORT     PTSUNNY   69  66  90 E3        30.00R
DANBURY        MOSUNNY   69  64  84 CALM      30.02S
GROTON         SUNNY     67  64  90 CALM      30.00S
NEW HAVEN      CLOUDY    68  66  93 N3        30.01S FOG
CHESTER        CLOUDY    63  63 100 CALM      30.02S FOG
MERIDEN        CLOUDY    64  62  93 CALM      30.01S
WILLIMANTIC    CLOUDY    59  58  96 CALM      30.02S
$$

MEZ002-015-021-024-NHZ003-005-008-011-012-014-VTZ005-008-201400-
NORTHERN NEW ENGLAND

CITY           SKY/WX    TMP DP  RH WIND       PRES   REMARKS
PORTLAND ME    SUNNY     68  59  73 CALM      30.02S
BANGOR ME      MOSUNNY   68  57  68 CALM      30.03R
CONCORD NH     SUNNY     62  55  77 CALM      30.02S
MANCHESTER NH  MOSUNNY   66  56  70 N3        30.00S
NASHUA NH      SUNNY     66  56  70 CALM      30.02S
PORTSMOUTH NH  MOSUNNY   67  58  73 CALM      30.01R
JAFFREY NH     SUNNY     65  56  72 CALM      30.04S
KEENE NH       SUNNY     61  46  59 CALM      30.03S
BURLINGTON VT  MOSUNNY   66  55  67 CALM      29.98F
MT. WASHINGTON MOSUNNY   52   0  11 NW5         N/A
$$

NYZ052-076-201400-
EASTERN NEW YORK

CITY           SKY/WX    TMP DP  RH WIND       PRES   REMARKS
ALBANY         CLOUDY    66  59  78 CALM      29.99S
NEW YORK CITY  PTSUNNY   74  66  76 NE8       29.99R
$$

ANZALL-201400-
MARINE OBSERVATIONS

STATION/POSITION TIME  TEMP    WIND        PRES    VSBY  WAVE
                       AIR SEA DIR/SP/G                  HT/PER
                 (UTC) (F)     (DEG/KT/KT) (MB)    (MI)  (FT/S)
BOSTON BUOY      1250   65 64   10/  2/  2 1016.4R         1/ 7
BUZZARDS BAY     1200           20/  3/  3 1016.5R
NANTUCKET SOUND  1250   67 70   70/  6/  6 1015.7R         1
MASS BAY-STELLWA 1204   67 65   60/  2/  4   N/A    1 7/8  1/11
ISLE OF SHOALS   1200   62      60/  3/  3 1015.8R
S OF BLOCK IS    1208      69                N/A           1/ 9
$$

......................KEY.........................
  SKY/WX - SKY CONDITION/PRESENT WEATHER
  TMP    - TEMPERATURE IN FAHRENHEIT
  DWPT   - DEWPOINT IN FAHRENHEIT
  RH     - RELATIVE HUMIDITY IN PERCENT
  WIND   - DIRECTION AND SPEED IN MPH
  PRES   - MEAN SEA LEVEL PRESSURE IN INCHES OF HG
  WCI    - WIND CHILL INDEX
  VSB    - VISIBILITY IN MILES
  HX     - HEAT INDEX
  TC     - TEMPERATURE IN CELSIUS
  VRB    - VARIABLE WIND DIRECTION
  N/A    - NOT AVAILABLE


USA.gov is the U.S. government's official web portal to all federal, state and local government web resources and services.